Location: Hodgeman County Ambulance
(38.0844°N, 99.8949°W)
Time: 23:21:37
(UTC+00:00)

SL-27 R/B - Pass Details

Date: 27 October 2020
Orbit: 420 x 469 km, 74.7° (Epoch: 04 December)

Event Time Altitude Azimuth Distance (km) Brightness Sun altitude
Rises 12:15:12 0° 182° (S) 2,477 6.3 -9.6°
Reaches altitude 10° 12:17:20 10° 175° (S) 1,612 5.4 -9.2°
Maximum altitude 12:20:43 43° 103° (ESE) 670 3.9 -8.5°
Drops below altitude 10° 12:24:10 10° 31° (NNE) 1,635 5.5 -7.9°
Sets 12:26:20 0° 25° (NNE) 2,517 6.4 -7.4°
